Regional Weather Roundup
Issued by NWS Northern Indiana

Home | Current Version | Previous Version | Graphics & Text | Print | Product List | Glossary On
Versions: 1 2 3 4 5 6 7 8 9 10 11 12 13 14 15 16 17 18 19 20 21 22 23 24 25 26 27 28 29 30 31 32 33 34 35 36 37 38 39 40 41 42 43 44 45 46 47 48 49 50
000
ASUS43 KIWX 250800
RWRIWX

KIWX WEATHER ROUNDUP
NATIONAL WEATHER SERVICE NORTHERN INDIANA
400 AM EDT MON MAY 25 2015

NOTE: "FAIR" INDICATES FEW OR NO CLOUDS BELOW 12,000 FEET WITH NO
SIGNIFICANT WEATHER AND/OR OBSTRUCTIONS TO VISIBILITY.

* THESE STATIONS ARE NOT UNDER NWS QUALITY CONTROL. THEY ALSO MAY NOT
  REPORT WEATHER SUCH AS PRECIPITATION OR FOG.

INZ001>027-250900-
NORTHERN INDIANA

CITY           SKY/WX    TMP DP  RH WIND       PRES   REMARKS
SOUTH BEND     MOCLDY    73  59  61 S13G22    29.93F
GOSHEN         CLEAR     70  57  63 S12       29.96F
ANGOLA*        CLEAR     70  55  60 S9        29.99F
FORT WAYNE     MOCLDY    69  56  62 S13       30.01F

$$
INZ028>050-250900-
CENTRAL INDIANA

CITY           SKY/WX    TMP DP  RH WIND       PRES   REMARKS
LAFAYETTE      CLOUDY    73  61  65 S9        29.92F
KOKOMO*        CLOUDY    70  57  64 S12       29.98F
MUNCIE*        MOCLDY    72  57  59 S13       30.02F
INDIANAPOLIS   CLOUDY    73  60  63 S14       29.99F

$$
MIZ043>046-050>051-056>058-064>065-071>073-077>080-250900-
SOUTHWEST LOWER MICHIGAN

CITY           SKY/WX    TMP DP  RH WIND       PRES   REMARKS
BATTLE CREEK   CLEAR     71  56  58 S12       29.97F
BENTON HARBOR  MOCLDY    71  59  65 S8        29.90F
COLDWATER*     CLEAR     70  54  56 S7        29.98F
HILLSDALE*     CLEAR     69  54  57 S7G16     30.01F
HOLLAND        PTCLDY    71  58  63 S12       29.91F
GRAND RAPIDS   PTCLDY    70  56  61 S12       29.93F
KALAMAZOO      CLEAR     70  56  61 S12       29.96F
STURGIS*       CLEAR     70  55  60 S14       29.96F
THREE RIVERS*  FAIR      69  56  62 S9        29.96F

$$
OHZ001>008-015>018-024>025-250900-
NORTHWEST OHIO

CITY           SKY/WX    TMP DP  RH WIND       PRES   REMARKS
DEFIANCE       CLEAR     70  53  54 S9        30.01F
FINDLAY        CLEAR     65  51  60 S10       30.05F
TOLEDO EXPRESS PTCLDY    66  50  56 S7        30.03F
TOLEDO METCALF PTCLDY    67  50  54 S9        30.04F
LIMA           CLEAR     68  51  54 S9        30.05F

$$
AND FOR LAKE MICHIGAN COASTAL AND OPEN LAKE BUOY OBSERVATIONS

STATION/POSITION TEMP    WIND        PRES    VSBY  WAVE
                 AIR SEA DIR/SP/G                  HT/PER
                 (F)     (DEG/KT/KT) (MB)    (MI)  (FT/S)
CALUMET HARBOR    74     160/ 12/ 20   N/A
MICHIGAN CITY     74     160/ 16/ 23   N/A
BURNS HARBOR      74     170/ 12/ 17 1012.2F
SAINT JOSEPH      73     160/  5/ 12 1014.2F
SOUTH LAKE BUOY   48 38  160/ 12/ 14 1011.6F         1/ 3
4 MI NW BRIDGMAN  67 54  200/ 14/ 16   N/A           2/ 3
MICHIGAN CITY     68 53  180/ 16/ 21   N/A           2/ 2

$$
&&


USA.gov is the U.S. government's official web portal to all federal, state and local government web resources and services.